Terminal Aerodrome Forecast
Issued by NWS Sterling, VA

Current Version | Previous Version | Text Only | Print | Product List | Glossary Off
Versions: 1 2 3 4 5 6 7 8 9 10 11 12 13 14 15 16 17 18 19 20 21 22 23 24 25 26 27 28 29 30 31

000
FTUS41 KLWX 021743
TAFIAD
TAF
KIAD 021743Z 0218/0324 22007KT P6SM FEW040
     FM030000 29004KT 5SM -SHRA VCTS OVC060CB
     FM030400 02004KT 5SM -SHRA VCTS OVC050CB
     FM030600 VRB04KT 2SM RA BR OVC008
     FM031200 33005KT 6SM -SHRA OVC008
     FM031800 36004KT P6SM BKN025=

USA.gov is the U.S. government's official web portal to all federal, state and local government web resources and services.